Volver al catálogo

STARLINK-34372

ActivoComunicacionesVLEO
NORAD 64301·PAYLOAD·🇺🇸 United States

Lanzado Jun 8, 2025 desde Vandenberg Space Force Base

Loading…

Próximos Pases (próximas 24 horas)

TLE

ActualizadoSource: CelesTrak SupGP

Época: Sep 15, 2026, 02:32 UTC

1 64301C 25123L   26258.10604167 -.00048842  00000+0 -16995-2 0  2582
2 64301  69.9999  75.2073 0003139 272.8222  67.2269 15.29594472    13

Sigue STARLINK-34372 en tiempo real con AllMySat

Download on the App Store